User: anonymous   Login
Location: Gulgong NSW 2852, Australia
(32.2976°S, 149.5548°E)
Time: 03:13:34
(UTC+11:00)
Language:

Tiangong - Orbit

View from above orbital plane
View from above orbital plane
View from above satellite
View from above satellite

Ground track
Ground track

The orbit data is extracted from the following two-line orbital elements,

1 48274U 21035A   22020.15191963  .00015792  00000-0  18665-3 0  9990
2 48274  41.4704  40.8946 0002531 114.4412 296.8588 15.60947150 41623
Epoch (UTC): 20 January 2022 03:38:45
Eccentricity: 0.0002531
inclination: 41.4704°
perigee height: 383 km
apogee height: 386 km
right ascension of ascending node: 40.8946°
argument of perigee: 114.4412°
revolutions per day: 15.60947150
mean anomaly at epoch: 296.8588°
orbit number at epoch: 4162

The dashed part of the orbit path shows where the satellite is in the earth's shadow,  

DLR